<?xml version="1.0" encoding="UTF-8" standalone="no" ?>
<gpx xmlns="http://www.topografix.com/GPX/1/1" xmlns:xsi="http://www.w3.org/2001/XMLSchema-instance" xsi:schemaLocation="http://www.topografix.com/GPX/1/1 http://www.topografix.com/GPX/1/1/gpx.xsd" version="1.1" creator="VisuGPX - https://www.visugpx.com">
  <metadata>
    <name>Belle-isle-en-terre - 27.43 km - RANDO MUCO 2023</name>
  </metadata>
  <wpt lat="48.52114" lon="-3.34048">
    <ele>189</ele>
    <name><![CDATA[Ravitaillement]]></name>
  </wpt>
  <wpt lat="48.51691" lon="-3.40805">
    <ele>135.2</ele>
    <name><![CDATA[Ravitaillement]]></name>
  </wpt>
  <wpt lat="48.52997" lon="-3.4165">
    <ele>174.6</ele>
    <name><![CDATA[Ravitaillement]]></name>
  </wpt>
  <trk>
    <name><![CDATA[Rando pédestre 30 KM 2023-6996366]]></name>
    <extensions>
      <line xmlns="http://www.topografix.com/GPX/gpx_style/0/2">
        <color>0000FF</color>
        <width>4</width>
      </line>
    </extensions>
    <trkseg>
      <trkpt lat="48.54651" lon="-3.39649">
        <ele>90</ele>
        <time>2023-04-13T07:22:15Z</time>
      </trkpt>
      <trkpt lat="48.54624" lon="-3.39558">
        <ele>91</ele>
        <time>2023-04-13T07:23:43Z</time>
      </trkpt>
      <trkpt lat="48.54554" lon="-3.39555">
        <ele>92</ele>
        <time>2023-04-13T07:25:17Z</time>
      </trkpt>
      <trkpt lat="48.54515" lon="-3.39576">
        <ele>93</ele>
        <time>2023-04-13T07:26:12Z</time>
      </trkpt>
      <trkpt lat="48.54472" lon="-3.39602">
        <ele>94</ele>
        <time>2023-04-13T07:27:14Z</time>
      </trkpt>
      <trkpt lat="48.54418" lon="-3.39607">
        <ele>94</ele>
        <time>2023-04-13T07:28:26Z</time>
      </trkpt>
      <trkpt lat="48.54376" lon="-3.39573">
        <ele>95</ele>
        <time>2023-04-13T07:29:29Z</time>
      </trkpt>
      <trkpt lat="48.54281" lon="-3.39576">
        <ele>98</ele>
        <time>2023-04-13T07:31:36Z</time>
      </trkpt>
      <trkpt lat="48.54278" lon="-3.39667">
        <ele>97</ele>
        <time>2023-04-13T07:32:57Z</time>
      </trkpt>
      <trkpt lat="48.54195" lon="-3.3966">
        <ele>101</ele>
        <time>2023-04-13T07:34:48Z</time>
      </trkpt>
      <trkpt lat="48.54152" lon="-3.39675">
        <ele>101</ele>
        <time>2023-04-13T07:35:47Z</time>
      </trkpt>
      <trkpt lat="48.54102" lon="-3.3967">
        <ele>103</ele>
        <time>2023-04-13T07:36:53Z</time>
      </trkpt>
      <trkpt lat="48.54048" lon="-3.39683">
        <ele>104</ele>
        <time>2023-04-13T07:38:06Z</time>
      </trkpt>
      <trkpt lat="48.53976" lon="-3.39691">
        <ele>104</ele>
        <time>2023-04-13T07:39:43Z</time>
      </trkpt>
      <trkpt lat="48.5392" lon="-3.39639">
        <ele>107</ele>
        <time>2023-04-13T07:41:10Z</time>
      </trkpt>
      <trkpt lat="48.53848" lon="-3.39513">
        <ele>105</ele>
        <time>2023-04-13T07:43:37Z</time>
      </trkpt>
      <trkpt lat="48.53843" lon="-3.39419">
        <ele>108</ele>
        <time>2023-04-13T07:45:01Z</time>
      </trkpt>
      <trkpt lat="48.53796" lon="-3.39245">
        <ele>122</ele>
        <time>2023-04-13T07:47:47Z</time>
      </trkpt>
      <trkpt lat="48.53735" lon="-3.39211">
        <ele>119</ele>
        <time>2023-04-13T07:49:14Z</time>
      </trkpt>
      <trkpt lat="48.53692" lon="-3.39179">
        <ele>123</ele>
        <time>2023-04-13T07:50:18Z</time>
      </trkpt>
      <trkpt lat="48.53647" lon="-3.39192">
        <ele>121</ele>
        <time>2023-04-13T07:51:19Z</time>
      </trkpt>
      <trkpt lat="48.53591" lon="-3.39169">
        <ele>127</ele>
        <time>2023-04-13T07:52:36Z</time>
      </trkpt>
      <trkpt lat="48.53568" lon="-3.39185">
        <ele>124</ele>
        <time>2023-04-13T07:53:10Z</time>
      </trkpt>
      <trkpt lat="48.5352" lon="-3.39148">
        <ele>131</ele>
        <time>2023-04-13T07:54:22Z</time>
      </trkpt>
      <trkpt lat="48.53482" lon="-3.39166">
        <ele>130</ele>
        <time>2023-04-13T07:55:15Z</time>
      </trkpt>
      <trkpt lat="48.53419" lon="-3.39182">
        <ele>124</ele>
        <time>2023-04-13T07:56:40Z</time>
      </trkpt>
      <trkpt lat="48.53363" lon="-3.392">
        <ele>117</ele>
        <time>2023-04-13T07:57:57Z</time>
      </trkpt>
      <trkpt lat="48.53316" lon="-3.39294">
        <ele>105</ele>
        <time>2023-04-13T07:59:41Z</time>
      </trkpt>
      <trkpt lat="48.53223" lon="-3.39339">
        <ele>108</ele>
        <time>2023-04-13T08:01:51Z</time>
      </trkpt>
      <trkpt lat="48.53153" lon="-3.39375">
        <ele>110</ele>
        <time>2023-04-13T08:03:30Z</time>
      </trkpt>
      <trkpt lat="48.53072" lon="-3.39399">
        <ele>112</ele>
        <time>2023-04-13T08:05:20Z</time>
      </trkpt>
      <trkpt lat="48.53009" lon="-3.39399">
        <ele>112</ele>
        <time>2023-04-13T08:06:44Z</time>
      </trkpt>
      <trkpt lat="48.52957" lon="-3.39406">
        <ele>108</ele>
        <time>2023-04-13T08:07:54Z</time>
      </trkpt>
      <trkpt lat="48.5293" lon="-3.39328">
        <ele>119</ele>
        <time>2023-04-13T08:09:11Z</time>
      </trkpt>
      <trkpt lat="48.52875" lon="-3.39294">
        <ele>115</ele>
        <time>2023-04-13T08:10:31Z</time>
      </trkpt>
      <trkpt lat="48.52806" lon="-3.39305">
        <ele>108</ele>
        <time>2023-04-13T08:12:03Z</time>
      </trkpt>
      <trkpt lat="48.52722" lon="-3.39302">
        <ele>108</ele>
        <time>2023-04-13T08:13:55Z</time>
      </trkpt>
      <trkpt lat="48.52637" lon="-3.39297">
        <ele>114</ele>
        <time>2023-04-13T08:15:49Z</time>
      </trkpt>
      <trkpt lat="48.52682" lon="-3.39221">
        <ele>117</ele>
        <time>2023-04-13T08:17:19Z</time>
      </trkpt>
      <trkpt lat="48.52702" lon="-3.39116">
        <ele>122</ele>
        <time>2023-04-13T08:18:56Z</time>
      </trkpt>
      <trkpt lat="48.52722" lon="-3.39035">
        <ele>125</ele>
        <time>2023-04-13T08:20:12Z</time>
      </trkpt>
      <trkpt lat="48.52735" lon="-3.38933">
        <ele>130</ele>
        <time>2023-04-13T08:21:44Z</time>
      </trkpt>
      <trkpt lat="48.52672" lon="-3.38785">
        <ele>149</ele>
        <time>2023-04-13T08:24:19Z</time>
      </trkpt>
      <trkpt lat="48.52699" lon="-3.38659">
        <ele>150</ele>
        <time>2023-04-13T08:26:16Z</time>
      </trkpt>
      <trkpt lat="48.52659" lon="-3.38571">
        <ele>154</ele>
        <time>2023-04-13T08:27:51Z</time>
      </trkpt>
      <trkpt lat="48.5263" lon="-3.38589">
        <ele>156</ele>
        <time>2023-04-13T08:28:33Z</time>
      </trkpt>
      <trkpt lat="48.52575" lon="-3.38565">
        <ele>161</ele>
        <time>2023-04-13T08:29:49Z</time>
      </trkpt>
      <trkpt lat="48.52528" lon="-3.38531">
        <ele>166</ele>
        <time>2023-04-13T08:30:58Z</time>
      </trkpt>
      <trkpt lat="48.52553" lon="-3.38477">
        <ele>166</ele>
        <time>2023-04-13T08:31:57Z</time>
      </trkpt>
      <trkpt lat="48.52684" lon="-3.38307">
        <ele>171</ele>
        <time>2023-04-13T08:35:47Z</time>
      </trkpt>
      <trkpt lat="48.5269" lon="-3.3827">
        <ele>173</ele>
        <time>2023-04-13T08:36:21Z</time>
      </trkpt>
      <trkpt lat="48.5279" lon="-3.38302">
        <ele>170</ele>
        <time>2023-04-13T08:38:37Z</time>
      </trkpt>
      <trkpt lat="48.52699" lon="-3.38182">
        <ele>177</ele>
        <time>2023-04-13T08:41:19Z</time>
      </trkpt>
      <trkpt lat="48.52657" lon="-3.38106">
        <ele>183</ele>
        <time>2023-04-13T08:42:46Z</time>
      </trkpt>
      <trkpt lat="48.52603" lon="-3.38049">
        <ele>186</ele>
        <time>2023-04-13T08:44:14Z</time>
      </trkpt>
      <trkpt lat="48.52541" lon="-3.38025">
        <ele>190</ele>
        <time>2023-04-13T08:45:39Z</time>
      </trkpt>
      <trkpt lat="48.52458" lon="-3.38025">
        <ele>195</ele>
        <time>2023-04-13T08:47:30Z</time>
      </trkpt>
      <trkpt lat="48.52399" lon="-3.38017">
        <ele>198</ele>
        <time>2023-04-13T08:48:49Z</time>
      </trkpt>
      <trkpt lat="48.52339" lon="-3.37983">
        <ele>201</ele>
        <time>2023-04-13T08:50:15Z</time>
      </trkpt>
      <trkpt lat="48.523" lon="-3.37944">
        <ele>201</ele>
        <time>2023-04-13T08:51:17Z</time>
      </trkpt>
      <trkpt lat="48.52224" lon="-3.37855">
        <ele>202</ele>
        <time>2023-04-13T08:53:25Z</time>
      </trkpt>
      <trkpt lat="48.52181" lon="-3.37835">
        <ele>201</ele>
        <time>2023-04-13T08:54:25Z</time>
      </trkpt>
      <trkpt lat="48.5207" lon="-3.37819">
        <ele>204</ele>
        <time>2023-04-13T08:56:54Z</time>
      </trkpt>
      <trkpt lat="48.52028" lon="-3.37808">
        <ele>205</ele>
        <time>2023-04-13T08:57:51Z</time>
      </trkpt>
      <trkpt lat="48.52003" lon="-3.37738">
        <ele>207</ele>
        <time>2023-04-13T08:59:01Z</time>
      </trkpt>
      <trkpt lat="48.52023" lon="-3.37615">
        <ele>207</ele>
        <time>2023-04-13T09:00:53Z</time>
      </trkpt>
      <trkpt lat="48.5209" lon="-3.37461">
        <ele>205</ele>
        <time>2023-04-13T09:03:36Z</time>
      </trkpt>
      <trkpt lat="48.52154" lon="-3.37357">
        <ele>206</ele>
        <time>2023-04-13T09:05:42Z</time>
      </trkpt>
      <trkpt lat="48.52201" lon="-3.37375">
        <ele>205</ele>
        <time>2023-04-13T09:06:46Z</time>
      </trkpt>
      <trkpt lat="48.52254" lon="-3.37406">
        <ele>205</ele>
        <time>2023-04-13T09:08:02Z</time>
      </trkpt>
      <trkpt lat="48.52291" lon="-3.37376">
        <ele>204</ele>
        <time>2023-04-13T09:08:58Z</time>
      </trkpt>
      <trkpt lat="48.52386" lon="-3.37339">
        <ele>202</ele>
        <time>2023-04-13T09:11:09Z</time>
      </trkpt>
      <trkpt lat="48.52407" lon="-3.37316">
        <ele>201</ele>
        <time>2023-04-13T09:11:44Z</time>
      </trkpt>
      <trkpt lat="48.52419" lon="-3.37291">
        <ele>199</ele>
        <time>2023-04-13T09:12:11Z</time>
      </trkpt>
      <trkpt lat="48.52414" lon="-3.37232">
        <ele>194</ele>
        <time>2023-04-13T09:13:04Z</time>
      </trkpt>
      <trkpt lat="48.52413" lon="-3.37177">
        <ele>189</ele>
        <time>2023-04-13T09:13:52Z</time>
      </trkpt>
      <trkpt lat="48.52495" lon="-3.3714">
        <ele>186</ele>
        <time>2023-04-13T09:15:47Z</time>
      </trkpt>
      <trkpt lat="48.52468" lon="-3.37113">
        <ele>184</ele>
        <time>2023-04-13T09:16:30Z</time>
      </trkpt>
      <trkpt lat="48.52459" lon="-3.37065">
        <ele>181</ele>
        <time>2023-04-13T09:17:14Z</time>
      </trkpt>
      <trkpt lat="48.52461" lon="-3.36852">
        <ele>165</ele>
        <time>2023-04-13T09:20:22Z</time>
      </trkpt>
      <trkpt lat="48.52452" lon="-3.36761">
        <ele>161</ele>
        <time>2023-04-13T09:21:43Z</time>
      </trkpt>
      <trkpt lat="48.52418" lon="-3.36702">
        <ele>162</ele>
        <time>2023-04-13T09:22:53Z</time>
      </trkpt>
      <trkpt lat="48.52372" lon="-3.36584">
        <ele>159</ele>
        <time>2023-04-13T09:24:54Z</time>
      </trkpt>
      <trkpt lat="48.52354" lon="-3.36497">
        <ele>156</ele>
        <time>2023-04-13T09:26:14Z</time>
      </trkpt>
      <trkpt lat="48.52361" lon="-3.36467">
        <ele>156</ele>
        <time>2023-04-13T09:26:42Z</time>
      </trkpt>
      <trkpt lat="48.52338" lon="-3.36338">
        <ele>155</ele>
        <time>2023-04-13T09:28:40Z</time>
      </trkpt>
      <trkpt lat="48.5229" lon="-3.3614">
        <ele>145</ele>
        <time>2023-04-13T09:31:47Z</time>
      </trkpt>
      <trkpt lat="48.52252" lon="-3.36118">
        <ele>141</ele>
        <time>2023-04-13T09:32:41Z</time>
      </trkpt>
      <trkpt lat="48.52192" lon="-3.36015">
        <ele>140</ele>
        <time>2023-04-13T09:34:42Z</time>
      </trkpt>
      <trkpt lat="48.5209" lon="-3.35961">
        <ele>144</ele>
        <time>2023-04-13T09:37:06Z</time>
      </trkpt>
      <trkpt lat="48.5208" lon="-3.35966">
        <ele>145</ele>
        <time>2023-04-13T09:37:21Z</time>
      </trkpt>
      <trkpt lat="48.52014" lon="-3.35921">
        <ele>149</ele>
        <time>2023-04-13T09:38:57Z</time>
      </trkpt>
      <trkpt lat="48.51964" lon="-3.3589">
        <ele>150</ele>
        <time>2023-04-13T09:40:09Z</time>
      </trkpt>
      <trkpt lat="48.51942" lon="-3.35719">
        <ele>145</ele>
        <time>2023-04-13T09:42:43Z</time>
      </trkpt>
      <trkpt lat="48.51918" lon="-3.35617">
        <ele>142</ele>
        <time>2023-04-13T09:44:19Z</time>
      </trkpt>
      <trkpt lat="48.51923" lon="-3.35524">
        <ele>138</ele>
        <time>2023-04-13T09:45:41Z</time>
      </trkpt>
      <trkpt lat="48.51931" lon="-3.35462">
        <ele>137</ele>
        <time>2023-04-13T09:46:37Z</time>
      </trkpt>
      <trkpt lat="48.52026" lon="-3.34736">
        <ele>168</ele>
        <time>2023-04-13T09:57:31Z</time>
      </trkpt>
      <trkpt lat="48.52114" lon="-3.34043">
        <ele>191</ele>
        <time>2023-04-13T10:07:55Z</time>
      </trkpt>
      <trkpt lat="48.51779" lon="-3.34469">
        <ele>160</ele>
        <time>2023-04-13T10:17:40Z</time>
      </trkpt>
      <trkpt lat="48.51437" lon="-3.34953">
        <ele>160</ele>
        <time>2023-04-13T10:28:05Z</time>
      </trkpt>
      <trkpt lat="48.51222" lon="-3.35264">
        <ele>149</ele>
        <time>2023-04-13T10:34:42Z</time>
      </trkpt>
      <trkpt lat="48.5127" lon="-3.35278">
        <ele>148</ele>
        <time>2023-04-13T10:35:48Z</time>
      </trkpt>
      <trkpt lat="48.51251" lon="-3.35357">
        <ele>151</ele>
        <time>2023-04-13T10:37:02Z</time>
      </trkpt>
      <trkpt lat="48.51252" lon="-3.35428">
        <ele>158</ele>
        <time>2023-04-13T10:38:05Z</time>
      </trkpt>
      <trkpt lat="48.51273" lon="-3.35608">
        <ele>175</ele>
        <time>2023-04-13T10:40:46Z</time>
      </trkpt>
      <trkpt lat="48.51248" lon="-3.35765">
        <ele>185</ele>
        <time>2023-04-13T10:43:09Z</time>
      </trkpt>
      <trkpt lat="48.51248" lon="-3.36452">
        <ele>259</ele>
        <time>2023-04-13T10:53:16Z</time>
      </trkpt>
      <trkpt lat="48.51172" lon="-3.36764">
        <ele>258</ele>
        <time>2023-04-13T10:58:10Z</time>
      </trkpt>
      <trkpt lat="48.51314" lon="-3.36874">
        <ele>259</ele>
        <time>2023-04-13T11:01:43Z</time>
      </trkpt>
      <trkpt lat="48.51299" lon="-3.36927">
        <ele>255</ele>
        <time>2023-04-13T11:02:34Z</time>
      </trkpt>
      <trkpt lat="48.51194" lon="-3.374">
        <ele>221</ele>
        <time>2023-04-13T11:09:55Z</time>
      </trkpt>
      <trkpt lat="48.51426" lon="-3.37542">
        <ele>203</ele>
        <time>2023-04-13T11:15:29Z</time>
      </trkpt>
      <trkpt lat="48.51386" lon="-3.37759">
        <ele>187</ele>
        <time>2023-04-13T11:18:48Z</time>
      </trkpt>
      <trkpt lat="48.51372" lon="-3.37823">
        <ele>185</ele>
        <time>2023-04-13T11:19:48Z</time>
      </trkpt>
      <trkpt lat="48.51396" lon="-3.37886">
        <ele>180</ele>
        <time>2023-04-13T11:20:52Z</time>
      </trkpt>
      <trkpt lat="48.51461" lon="-3.37918">
        <ele>179</ele>
        <time>2023-04-13T11:22:24Z</time>
      </trkpt>
      <trkpt lat="48.51493" lon="-3.3796">
        <ele>177</ele>
        <time>2023-04-13T11:23:20Z</time>
      </trkpt>
      <trkpt lat="48.51504" lon="-3.37993">
        <ele>173</ele>
        <time>2023-04-13T11:23:53Z</time>
      </trkpt>
      <trkpt lat="48.51539" lon="-3.38144">
        <ele>166</ele>
        <time>2023-04-13T11:26:14Z</time>
      </trkpt>
      <trkpt lat="48.5156" lon="-3.38234">
        <ele>163</ele>
        <time>2023-04-13T11:27:39Z</time>
      </trkpt>
      <trkpt lat="48.51596" lon="-3.38401">
        <ele>160</ele>
        <time>2023-04-13T11:30:14Z</time>
      </trkpt>
      <trkpt lat="48.51646" lon="-3.38665">
        <ele>164</ele>
        <time>2023-04-13T11:34:16Z</time>
      </trkpt>
      <trkpt lat="48.51693" lon="-3.38696">
        <ele>165</ele>
        <time>2023-04-13T11:35:25Z</time>
      </trkpt>
      <trkpt lat="48.51723" lon="-3.38726">
        <ele>164</ele>
        <time>2023-04-13T11:36:13Z</time>
      </trkpt>
      <trkpt lat="48.5175" lon="-3.38748">
        <ele>161</ele>
        <time>2023-04-13T11:36:54Z</time>
      </trkpt>
      <trkpt lat="48.51778" lon="-3.38761">
        <ele>162</ele>
        <time>2023-04-13T11:37:33Z</time>
      </trkpt>
      <trkpt lat="48.51818" lon="-3.38765">
        <ele>160</ele>
        <time>2023-04-13T11:38:26Z</time>
      </trkpt>
      <trkpt lat="48.51863" lon="-3.38776">
        <ele>158</ele>
        <time>2023-04-13T11:39:27Z</time>
      </trkpt>
      <trkpt lat="48.51893" lon="-3.38788">
        <ele>156</ele>
        <time>2023-04-13T11:40:09Z</time>
      </trkpt>
      <trkpt lat="48.51939" lon="-3.38818">
        <ele>154</ele>
        <time>2023-04-13T11:41:16Z</time>
      </trkpt>
      <trkpt lat="48.5196" lon="-3.38842">
        <ele>153</ele>
        <time>2023-04-13T11:41:51Z</time>
      </trkpt>
      <trkpt lat="48.5198" lon="-3.38885">
        <ele>152</ele>
        <time>2023-04-13T11:42:37Z</time>
      </trkpt>
      <trkpt lat="48.52014" lon="-3.38936">
        <ele>148</ele>
        <time>2023-04-13T11:43:41Z</time>
      </trkpt>
      <trkpt lat="48.52048" lon="-3.38988">
        <ele>143</ele>
        <time>2023-04-13T11:44:46Z</time>
      </trkpt>
      <trkpt lat="48.52076" lon="-3.39038">
        <ele>136</ele>
        <time>2023-04-13T11:45:44Z</time>
      </trkpt>
      <trkpt lat="48.52101" lon="-3.391">
        <ele>132</ele>
        <time>2023-04-13T11:46:48Z</time>
      </trkpt>
      <trkpt lat="48.5212" lon="-3.39162">
        <ele>131</ele>
        <time>2023-04-13T11:47:48Z</time>
      </trkpt>
      <trkpt lat="48.52044" lon="-3.39143">
        <ele>152</ele>
        <time>2023-04-13T11:49:31Z</time>
      </trkpt>
      <trkpt lat="48.52021" lon="-3.39082">
        <ele>156</ele>
        <time>2023-04-13T11:50:33Z</time>
      </trkpt>
      <trkpt lat="48.51987" lon="-3.39067">
        <ele>165</ele>
        <time>2023-04-13T11:51:20Z</time>
      </trkpt>
      <trkpt lat="48.51991" lon="-3.39143">
        <ele>169</ele>
        <time>2023-04-13T11:52:28Z</time>
      </trkpt>
      <trkpt lat="48.51982" lon="-3.39199">
        <ele>171</ele>
        <time>2023-04-13T11:53:19Z</time>
      </trkpt>
      <trkpt lat="48.51969" lon="-3.39245">
        <ele>171</ele>
        <time>2023-04-13T11:54:03Z</time>
      </trkpt>
      <trkpt lat="48.51908" lon="-3.39205">
        <ele>181</ele>
        <time>2023-04-13T11:55:32Z</time>
      </trkpt>
      <trkpt lat="48.51861" lon="-3.39181">
        <ele>185</ele>
        <time>2023-04-13T11:56:38Z</time>
      </trkpt>
      <trkpt lat="48.51818" lon="-3.39179">
        <ele>185</ele>
        <time>2023-04-13T11:57:35Z</time>
      </trkpt>
      <trkpt lat="48.51775" lon="-3.39207">
        <ele>183</ele>
        <time>2023-04-13T11:58:38Z</time>
      </trkpt>
      <trkpt lat="48.51738" lon="-3.39226">
        <ele>183</ele>
        <time>2023-04-13T11:59:30Z</time>
      </trkpt>
      <trkpt lat="48.51735" lon="-3.3926">
        <ele>182</ele>
        <time>2023-04-13T12:00:00Z</time>
      </trkpt>
      <trkpt lat="48.51696" lon="-3.39313">
        <ele>180</ele>
        <time>2023-04-13T12:01:10Z</time>
      </trkpt>
      <trkpt lat="48.51641" lon="-3.39348">
        <ele>180</ele>
        <time>2023-04-13T12:02:30Z</time>
      </trkpt>
      <trkpt lat="48.51635" lon="-3.39414">
        <ele>177</ele>
        <time>2023-04-13T12:03:29Z</time>
      </trkpt>
      <trkpt lat="48.51635" lon="-3.3948">
        <ele>175</ele>
        <time>2023-04-13T12:04:27Z</time>
      </trkpt>
      <trkpt lat="48.5164" lon="-3.39524">
        <ele>173</ele>
        <time>2023-04-13T12:05:06Z</time>
      </trkpt>
      <trkpt lat="48.51641" lon="-3.39599">
        <ele>170</ele>
        <time>2023-04-13T12:06:13Z</time>
      </trkpt>
      <trkpt lat="48.51659" lon="-3.39705">
        <ele>165</ele>
        <time>2023-04-13T12:07:50Z</time>
      </trkpt>
      <trkpt lat="48.5162" lon="-3.39722">
        <ele>166</ele>
        <time>2023-04-13T12:08:44Z</time>
      </trkpt>
      <trkpt lat="48.51611" lon="-3.39821">
        <ele>163</ele>
        <time>2023-04-13T12:10:12Z</time>
      </trkpt>
      <trkpt lat="48.51597" lon="-3.39871">
        <ele>164</ele>
        <time>2023-04-13T12:11:00Z</time>
      </trkpt>
      <trkpt lat="48.51581" lon="-3.39921">
        <ele>165</ele>
        <time>2023-04-13T12:11:49Z</time>
      </trkpt>
      <trkpt lat="48.51606" lon="-3.39947">
        <ele>165</ele>
        <time>2023-04-13T12:12:30Z</time>
      </trkpt>
      <trkpt lat="48.51646" lon="-3.39936">
        <ele>162</ele>
        <time>2023-04-13T12:13:24Z</time>
      </trkpt>
      <trkpt lat="48.51803" lon="-3.40115">
        <ele>146</ele>
        <time>2023-04-13T12:17:46Z</time>
      </trkpt>
      <trkpt lat="48.51812" lon="-3.40156">
        <ele>144</ele>
        <time>2023-04-13T12:18:25Z</time>
      </trkpt>
      <trkpt lat="48.51766" lon="-3.4027">
        <ele>148</ele>
        <time>2023-04-13T12:20:23Z</time>
      </trkpt>
      <trkpt lat="48.51761" lon="-3.40341">
        <ele>145</ele>
        <time>2023-04-13T12:21:26Z</time>
      </trkpt>
      <trkpt lat="48.51746" lon="-3.40377">
        <ele>148</ele>
        <time>2023-04-13T12:22:03Z</time>
      </trkpt>
      <trkpt lat="48.51739" lon="-3.40471">
        <ele>146</ele>
        <time>2023-04-13T12:23:27Z</time>
      </trkpt>
      <trkpt lat="48.51721" lon="-3.40612">
        <ele>141</ele>
        <time>2023-04-13T12:25:34Z</time>
      </trkpt>
      <trkpt lat="48.51719" lon="-3.40678">
        <ele>137</ele>
        <time>2023-04-13T12:26:32Z</time>
      </trkpt>
      <trkpt lat="48.51715" lon="-3.40735">
        <ele>135</ele>
        <time>2023-04-13T12:27:23Z</time>
      </trkpt>
      <trkpt lat="48.51693" lon="-3.40808">
        <ele>135</ele>
        <time>2023-04-13T12:28:34Z</time>
      </trkpt>
      <trkpt lat="48.5167" lon="-3.40804">
        <ele>138</ele>
        <time>2023-04-13T12:29:05Z</time>
      </trkpt>
      <trkpt lat="48.51639" lon="-3.40686">
        <ele>149</ele>
        <time>2023-04-13T12:30:57Z</time>
      </trkpt>
      <trkpt lat="48.51603" lon="-3.40654">
        <ele>154</ele>
        <time>2023-04-13T12:31:53Z</time>
      </trkpt>
      <trkpt lat="48.5155" lon="-3.40567">
        <ele>165</ele>
        <time>2023-04-13T12:33:37Z</time>
      </trkpt>
      <trkpt lat="48.51503" lon="-3.40496">
        <ele>174</ele>
        <time>2023-04-13T12:35:06Z</time>
      </trkpt>
      <trkpt lat="48.51488" lon="-3.40461">
        <ele>176</ele>
        <time>2023-04-13T12:35:43Z</time>
      </trkpt>
      <trkpt lat="48.51452" lon="-3.40382">
        <ele>181</ele>
        <time>2023-04-13T12:37:07Z</time>
      </trkpt>
      <trkpt lat="48.51432" lon="-3.40394">
        <ele>181</ele>
        <time>2023-04-13T12:37:36Z</time>
      </trkpt>
      <trkpt lat="48.51275" lon="-3.40291">
        <ele>191</ele>
        <time>2023-04-13T12:41:25Z</time>
      </trkpt>
      <trkpt lat="48.51204" lon="-3.40221">
        <ele>198</ele>
        <time>2023-04-13T12:43:18Z</time>
      </trkpt>
      <trkpt lat="48.51167" lon="-3.40164">
        <ele>204</ele>
        <time>2023-04-13T12:44:28Z</time>
      </trkpt>
      <trkpt lat="48.51147" lon="-3.4009">
        <ele>207</ele>
        <time>2023-04-13T12:45:39Z</time>
      </trkpt>
      <trkpt lat="48.51067" lon="-3.40055">
        <ele>217</ele>
        <time>2023-04-13T12:47:30Z</time>
      </trkpt>
      <trkpt lat="48.50936" lon="-3.39822">
        <ele>233</ele>
        <time>2023-04-13T12:52:00Z</time>
      </trkpt>
      <trkpt lat="48.50631" lon="-3.39726">
        <ele>238</ele>
        <time>2023-04-13T12:58:56Z</time>
      </trkpt>
      <trkpt lat="48.50608" lon="-3.39795">
        <ele>235</ele>
        <time>2023-04-13T13:00:04Z</time>
      </trkpt>
      <trkpt lat="48.50617" lon="-3.39932">
        <ele>231</ele>
        <time>2023-04-13T13:02:06Z</time>
      </trkpt>
      <trkpt lat="48.50617" lon="-3.40039">
        <ele>226</ele>
        <time>2023-04-13T13:03:41Z</time>
      </trkpt>
      <trkpt lat="48.50583" lon="-3.40203">
        <ele>216</ele>
        <time>2023-04-13T13:06:13Z</time>
      </trkpt>
      <trkpt lat="48.50514" lon="-3.40417">
        <ele>199</ele>
        <time>2023-04-13T13:09:43Z</time>
      </trkpt>
      <trkpt lat="48.50446" lon="-3.40524">
        <ele>191</ele>
        <time>2023-04-13T13:11:54Z</time>
      </trkpt>
      <trkpt lat="48.50495" lon="-3.40623">
        <ele>188</ele>
        <time>2023-04-13T13:13:43Z</time>
      </trkpt>
      <trkpt lat="48.50583" lon="-3.40619">
        <ele>188</ele>
        <time>2023-04-13T13:15:41Z</time>
      </trkpt>
      <trkpt lat="48.50654" lon="-3.40799">
        <ele>183</ele>
        <time>2023-04-13T13:18:46Z</time>
      </trkpt>
      <trkpt lat="48.50645" lon="-3.40889">
        <ele>175</ele>
        <time>2023-04-13T13:20:07Z</time>
      </trkpt>
      <trkpt lat="48.50679" lon="-3.40992">
        <ele>168</ele>
        <time>2023-04-13T13:21:48Z</time>
      </trkpt>
      <trkpt lat="48.50765" lon="-3.41031">
        <ele>166</ele>
        <time>2023-04-13T13:23:48Z</time>
      </trkpt>
      <trkpt lat="48.50822" lon="-3.41018">
        <ele>163</ele>
        <time>2023-04-13T13:25:05Z</time>
      </trkpt>
      <trkpt lat="48.5091" lon="-3.41014">
        <ele>160</ele>
        <time>2023-04-13T13:27:03Z</time>
      </trkpt>
      <trkpt lat="48.50992" lon="-3.41026">
        <ele>159</ele>
        <time>2023-04-13T13:28:53Z</time>
      </trkpt>
      <trkpt lat="48.51071" lon="-3.41027">
        <ele>157</ele>
        <time>2023-04-13T13:30:38Z</time>
      </trkpt>
      <trkpt lat="48.51115" lon="-3.4113">
        <ele>149</ele>
        <time>2023-04-13T13:32:26Z</time>
      </trkpt>
      <trkpt lat="48.5116" lon="-3.41266">
        <ele>138</ele>
        <time>2023-04-13T13:34:41Z</time>
      </trkpt>
      <trkpt lat="48.51202" lon="-3.41544">
        <ele>131</ele>
        <time>2023-04-13T13:38:53Z</time>
      </trkpt>
      <trkpt lat="48.51286" lon="-3.41638">
        <ele>129</ele>
        <time>2023-04-13T13:41:12Z</time>
      </trkpt>
      <trkpt lat="48.51341" lon="-3.41733">
        <ele>121</ele>
        <time>2023-04-13T13:43:04Z</time>
      </trkpt>
      <trkpt lat="48.51424" lon="-3.41769">
        <ele>124</ele>
        <time>2023-04-13T13:44:59Z</time>
      </trkpt>
      <trkpt lat="48.51484" lon="-3.41761">
        <ele>131</ele>
        <time>2023-04-13T13:46:19Z</time>
      </trkpt>
      <trkpt lat="48.51458" lon="-3.41842">
        <ele>132</ele>
        <time>2023-04-13T13:47:39Z</time>
      </trkpt>
      <trkpt lat="48.51427" lon="-3.41898">
        <ele>131</ele>
        <time>2023-04-13T13:48:44Z</time>
      </trkpt>
      <trkpt lat="48.51399" lon="-3.41915">
        <ele>131</ele>
        <time>2023-04-13T13:49:24Z</time>
      </trkpt>
      <trkpt lat="48.51333" lon="-3.41915">
        <ele>130</ele>
        <time>2023-04-13T13:50:52Z</time>
      </trkpt>
      <trkpt lat="48.51365" lon="-3.41975">
        <ele>129</ele>
        <time>2023-04-13T13:52:00Z</time>
      </trkpt>
      <trkpt lat="48.51393" lon="-3.42018">
        <ele>127</ele>
        <time>2023-04-13T13:52:53Z</time>
      </trkpt>
      <trkpt lat="48.51441" lon="-3.42065">
        <ele>123</ele>
        <time>2023-04-13T13:54:10Z</time>
      </trkpt>
      <trkpt lat="48.51476" lon="-3.421">
        <ele>119</ele>
        <time>2023-04-13T13:55:06Z</time>
      </trkpt>
      <trkpt lat="48.51526" lon="-3.42207">
        <ele>112</ele>
        <time>2023-04-13T13:57:01Z</time>
      </trkpt>
      <trkpt lat="48.51521" lon="-3.42257">
        <ele>113</ele>
        <time>2023-04-13T13:57:46Z</time>
      </trkpt>
      <trkpt lat="48.51522" lon="-3.42311">
        <ele>116</ele>
        <time>2023-04-13T13:58:34Z</time>
      </trkpt>
      <trkpt lat="48.51574" lon="-3.42308">
        <ele>113</ele>
        <time>2023-04-13T13:59:43Z</time>
      </trkpt>
      <trkpt lat="48.51624" lon="-3.42429">
        <ele>120</ele>
        <time>2023-04-13T14:01:49Z</time>
      </trkpt>
      <trkpt lat="48.51628" lon="-3.42606">
        <ele>131</ele>
        <time>2023-04-13T14:04:26Z</time>
      </trkpt>
      <trkpt lat="48.5165" lon="-3.42691">
        <ele>129</ele>
        <time>2023-04-13T14:05:47Z</time>
      </trkpt>
      <trkpt lat="48.51676" lon="-3.42765">
        <ele>125</ele>
        <time>2023-04-13T14:07:01Z</time>
      </trkpt>
      <trkpt lat="48.51692" lon="-3.42845">
        <ele>129</ele>
        <time>2023-04-13T14:08:14Z</time>
      </trkpt>
      <trkpt lat="48.51729" lon="-3.42893">
        <ele>123</ele>
        <time>2023-04-13T14:09:20Z</time>
      </trkpt>
      <trkpt lat="48.51729" lon="-3.42969">
        <ele>125</ele>
        <time>2023-04-13T14:10:27Z</time>
      </trkpt>
      <trkpt lat="48.51756" lon="-3.43034">
        <ele>122</ele>
        <time>2023-04-13T14:11:35Z</time>
      </trkpt>
      <trkpt lat="48.51737" lon="-3.43184">
        <ele>131</ele>
        <time>2023-04-13T14:13:50Z</time>
      </trkpt>
      <trkpt lat="48.51691" lon="-3.43232">
        <ele>146</ele>
        <time>2023-04-13T14:15:04Z</time>
      </trkpt>
      <trkpt lat="48.51661" lon="-3.43278">
        <ele>155</ele>
        <time>2023-04-13T14:16:01Z</time>
      </trkpt>
      <trkpt lat="48.5162" lon="-3.43316">
        <ele>165</ele>
        <time>2023-04-13T14:17:05Z</time>
      </trkpt>
      <trkpt lat="48.51568" lon="-3.43343">
        <ele>174</ele>
        <time>2023-04-13T14:18:19Z</time>
      </trkpt>
      <trkpt lat="48.51544" lon="-3.43433">
        <ele>176</ele>
        <time>2023-04-13T14:19:45Z</time>
      </trkpt>
      <trkpt lat="48.51504" lon="-3.43462">
        <ele>178</ele>
        <time>2023-04-13T14:20:44Z</time>
      </trkpt>
      <trkpt lat="48.5144" lon="-3.43431">
        <ele>181</ele>
        <time>2023-04-13T14:22:14Z</time>
      </trkpt>
      <trkpt lat="48.51419" lon="-3.43494">
        <ele>184</ele>
        <time>2023-04-13T14:23:16Z</time>
      </trkpt>
      <trkpt lat="48.51413" lon="-3.43649">
        <ele>183</ele>
        <time>2023-04-13T14:25:33Z</time>
      </trkpt>
      <trkpt lat="48.51426" lon="-3.43791">
        <ele>181</ele>
        <time>2023-04-13T14:27:40Z</time>
      </trkpt>
      <trkpt lat="48.51451" lon="-3.43834">
        <ele>179</ele>
        <time>2023-04-13T14:28:30Z</time>
      </trkpt>
      <trkpt lat="48.51451" lon="-3.43891">
        <ele>178</ele>
        <time>2023-04-13T14:29:21Z</time>
      </trkpt>
      <trkpt lat="48.51474" lon="-3.43982">
        <ele>174</ele>
        <time>2023-04-13T14:30:47Z</time>
      </trkpt>
      <trkpt lat="48.51568" lon="-3.43968">
        <ele>166</ele>
        <time>2023-04-13T14:32:53Z</time>
      </trkpt>
      <trkpt lat="48.51606" lon="-3.44086">
        <ele>151</ele>
        <time>2023-04-13T14:34:49Z</time>
      </trkpt>
      <trkpt lat="48.51669" lon="-3.44022">
        <ele>148</ele>
        <time>2023-04-13T14:36:30Z</time>
      </trkpt>
      <trkpt lat="48.51715" lon="-3.43846">
        <ele>143</ele>
        <time>2023-04-13T14:39:18Z</time>
      </trkpt>
      <trkpt lat="48.51781" lon="-3.43763">
        <ele>130</ele>
        <time>2023-04-13T14:41:12Z</time>
      </trkpt>
      <trkpt lat="48.51833" lon="-3.43713">
        <ele>125</ele>
        <time>2023-04-13T14:42:34Z</time>
      </trkpt>
      <trkpt lat="48.51884" lon="-3.43635">
        <ele>120</ele>
        <time>2023-04-13T14:44:11Z</time>
      </trkpt>
      <trkpt lat="48.51918" lon="-3.43559">
        <ele>117</ele>
        <time>2023-04-13T14:45:32Z</time>
      </trkpt>
      <trkpt lat="48.51977" lon="-3.43564">
        <ele>123</ele>
        <time>2023-04-13T14:46:51Z</time>
      </trkpt>
      <trkpt lat="48.52025" lon="-3.43408">
        <ele>125</ele>
        <time>2023-04-13T14:49:23Z</time>
      </trkpt>
      <trkpt lat="48.52069" lon="-3.43384">
        <ele>133</ele>
        <time>2023-04-13T14:50:26Z</time>
      </trkpt>
      <trkpt lat="48.52121" lon="-3.43306">
        <ele>140</ele>
        <time>2023-04-13T14:52:03Z</time>
      </trkpt>
      <trkpt lat="48.52203" lon="-3.43222">
        <ele>150</ele>
        <time>2023-04-13T14:54:16Z</time>
      </trkpt>
      <trkpt lat="48.52297" lon="-3.43319">
        <ele>161</ele>
        <time>2023-04-13T14:56:48Z</time>
      </trkpt>
      <trkpt lat="48.52352" lon="-3.43254">
        <ele>165</ele>
        <time>2023-04-13T14:58:21Z</time>
      </trkpt>
      <trkpt lat="48.52385" lon="-3.43144">
        <ele>160</ele>
        <time>2023-04-13T15:00:08Z</time>
      </trkpt>
      <trkpt lat="48.52453" lon="-3.43035">
        <ele>161</ele>
        <time>2023-04-13T15:02:20Z</time>
      </trkpt>
      <trkpt lat="48.52505" lon="-3.43006">
        <ele>163</ele>
        <time>2023-04-13T15:03:34Z</time>
      </trkpt>
      <trkpt lat="48.52647" lon="-3.42961">
        <ele>170</ele>
        <time>2023-04-13T15:06:48Z</time>
      </trkpt>
      <trkpt lat="48.52737" lon="-3.42907">
        <ele>171</ele>
        <time>2023-04-13T15:08:57Z</time>
      </trkpt>
      <trkpt lat="48.52909" lon="-3.42792">
        <ele>181</ele>
        <time>2023-04-13T15:13:08Z</time>
      </trkpt>
      <trkpt lat="48.52963" lon="-3.42578">
        <ele>186</ele>
        <time>2023-04-13T15:16:30Z</time>
      </trkpt>
      <trkpt lat="48.52917" lon="-3.42507">
        <ele>184</ele>
        <time>2023-04-13T15:17:58Z</time>
      </trkpt>
      <trkpt lat="48.52866" lon="-3.42442">
        <ele>181</ele>
        <time>2023-04-13T15:19:27Z</time>
      </trkpt>
      <trkpt lat="48.5282" lon="-3.42359">
        <ele>178</ele>
        <time>2023-04-13T15:21:03Z</time>
      </trkpt>
      <trkpt lat="48.52859" lon="-3.4233">
        <ele>178</ele>
        <time>2023-04-13T15:22:01Z</time>
      </trkpt>
      <trkpt lat="48.52872" lon="-3.42283">
        <ele>177</ele>
        <time>2023-04-13T15:22:46Z</time>
      </trkpt>
      <trkpt lat="48.52908" lon="-3.42249">
        <ele>177</ele>
        <time>2023-04-13T15:23:42Z</time>
      </trkpt>
      <trkpt lat="48.52936" lon="-3.42137">
        <ele>176</ele>
        <time>2023-04-13T15:25:28Z</time>
      </trkpt>
      <trkpt lat="48.52951" lon="-3.42022">
        <ele>174</ele>
        <time>2023-04-13T15:27:12Z</time>
      </trkpt>
      <trkpt lat="48.52956" lon="-3.41886">
        <ele>173</ele>
        <time>2023-04-13T15:29:12Z</time>
      </trkpt>
      <trkpt lat="48.52944" lon="-3.41766">
        <ele>172</ele>
        <time>2023-04-13T15:30:59Z</time>
      </trkpt>
      <trkpt lat="48.52945" lon="-3.41652">
        <ele>174</ele>
        <time>2023-04-13T15:32:40Z</time>
      </trkpt>
      <trkpt lat="48.53001" lon="-3.41652">
        <ele>173</ele>
        <time>2023-04-13T15:33:55Z</time>
      </trkpt>
      <trkpt lat="48.53006" lon="-3.41527">
        <ele>172</ele>
        <time>2023-04-13T15:35:46Z</time>
      </trkpt>
      <trkpt lat="48.53021" lon="-3.41431">
        <ele>172</ele>
        <time>2023-04-13T15:37:13Z</time>
      </trkpt>
      <trkpt lat="48.5306" lon="-3.41305">
        <ele>171</ele>
        <time>2023-04-13T15:39:16Z</time>
      </trkpt>
      <trkpt lat="48.53044" lon="-3.41217">
        <ele>170</ele>
        <time>2023-04-13T15:40:36Z</time>
      </trkpt>
      <trkpt lat="48.53076" lon="-3.41136">
        <ele>170</ele>
        <time>2023-04-13T15:42:00Z</time>
      </trkpt>
      <trkpt lat="48.53089" lon="-3.41065">
        <ele>170</ele>
        <time>2023-04-13T15:43:05Z</time>
      </trkpt>
      <trkpt lat="48.53132" lon="-3.40961">
        <ele>171</ele>
        <time>2023-04-13T15:44:53Z</time>
      </trkpt>
      <trkpt lat="48.53161" lon="-3.40867">
        <ele>171</ele>
        <time>2023-04-13T15:46:25Z</time>
      </trkpt>
      <trkpt lat="48.53193" lon="-3.40762">
        <ele>170</ele>
        <time>2023-04-13T15:48:07Z</time>
      </trkpt>
      <trkpt lat="48.53253" lon="-3.40648">
        <ele>166</ele>
        <time>2023-04-13T15:50:15Z</time>
      </trkpt>
      <trkpt lat="48.53303" lon="-3.40564">
        <ele>163</ele>
        <time>2023-04-13T15:51:55Z</time>
      </trkpt>
      <trkpt lat="48.53355" lon="-3.4046">
        <ele>159</ele>
        <time>2023-04-13T15:53:50Z</time>
      </trkpt>
      <trkpt lat="48.53403" lon="-3.40353">
        <ele>155</ele>
        <time>2023-04-13T15:55:45Z</time>
      </trkpt>
      <trkpt lat="48.53436" lon="-3.40345">
        <ele>154</ele>
        <time>2023-04-13T15:56:29Z</time>
      </trkpt>
      <trkpt lat="48.53468" lon="-3.403">
        <ele>152</ele>
        <time>2023-04-13T15:57:28Z</time>
      </trkpt>
      <trkpt lat="48.53475" lon="-3.40253">
        <ele>151</ele>
        <time>2023-04-13T15:58:10Z</time>
      </trkpt>
      <trkpt lat="48.53467" lon="-3.40226">
        <ele>150</ele>
        <time>2023-04-13T15:58:36Z</time>
      </trkpt>
      <trkpt lat="48.5353" lon="-3.40137">
        <ele>147</ele>
        <time>2023-04-13T16:00:31Z</time>
      </trkpt>
      <trkpt lat="48.53586" lon="-3.40075">
        <ele>144</ele>
        <time>2023-04-13T16:02:04Z</time>
      </trkpt>
      <trkpt lat="48.53657" lon="-3.40165">
        <ele>141</ele>
        <time>2023-04-13T16:04:08Z</time>
      </trkpt>
      <trkpt lat="48.53702" lon="-3.40094">
        <ele>136</ele>
        <time>2023-04-13T16:05:35Z</time>
      </trkpt>
      <trkpt lat="48.53724" lon="-3.4008">
        <ele>134</ele>
        <time>2023-04-13T16:06:06Z</time>
      </trkpt>
      <trkpt lat="48.53768" lon="-3.40126">
        <ele>128</ele>
        <time>2023-04-13T16:07:18Z</time>
      </trkpt>
      <trkpt lat="48.53791" lon="-3.40024">
        <ele>122</ele>
        <time>2023-04-13T16:08:53Z</time>
      </trkpt>
      <trkpt lat="48.53792" lon="-3.39972">
        <ele>122</ele>
        <time>2023-04-13T16:09:39Z</time>
      </trkpt>
      <trkpt lat="48.53844" lon="-3.39972">
        <ele>117</ele>
        <time>2023-04-13T16:10:48Z</time>
      </trkpt>
      <trkpt lat="48.53889" lon="-3.39921">
        <ele>112</ele>
        <time>2023-04-13T16:12:04Z</time>
      </trkpt>
      <trkpt lat="48.53935" lon="-3.39821">
        <ele>101</ele>
        <time>2023-04-13T16:13:51Z</time>
      </trkpt>
      <trkpt lat="48.53981" lon="-3.39785">
        <ele>102</ele>
        <time>2023-04-13T16:15:00Z</time>
      </trkpt>
      <trkpt lat="48.5401" lon="-3.3978">
        <ele>102</ele>
        <time>2023-04-13T16:15:39Z</time>
      </trkpt>
      <trkpt lat="48.54046" lon="-3.39787">
        <ele>103</ele>
        <time>2023-04-13T16:16:28Z</time>
      </trkpt>
      <trkpt lat="48.54098" lon="-3.39777">
        <ele>102</ele>
        <time>2023-04-13T16:17:38Z</time>
      </trkpt>
      <trkpt lat="48.5416" lon="-3.39796">
        <ele>103</ele>
        <time>2023-04-13T16:19:02Z</time>
      </trkpt>
      <trkpt lat="48.54202" lon="-3.3978">
        <ele>100</ele>
        <time>2023-04-13T16:20:00Z</time>
      </trkpt>
      <trkpt lat="48.54234" lon="-3.39779">
        <ele>99</ele>
        <time>2023-04-13T16:20:43Z</time>
      </trkpt>
      <trkpt lat="48.54256" lon="-3.39796">
        <ele>100</ele>
        <time>2023-04-13T16:21:16Z</time>
      </trkpt>
      <trkpt lat="48.54298" lon="-3.39787">
        <ele>100</ele>
        <time>2023-04-13T16:22:12Z</time>
      </trkpt>
      <trkpt lat="48.5432" lon="-3.3976">
        <ele>96</ele>
        <time>2023-04-13T16:22:50Z</time>
      </trkpt>
      <trkpt lat="48.54372" lon="-3.39773">
        <ele>97</ele>
        <time>2023-04-13T16:24:00Z</time>
      </trkpt>
      <trkpt lat="48.5444" lon="-3.39775">
        <ele>95</ele>
        <time>2023-04-13T16:25:31Z</time>
      </trkpt>
      <trkpt lat="48.54487" lon="-3.39809">
        <ele>94</ele>
        <time>2023-04-13T16:26:41Z</time>
      </trkpt>
      <trkpt lat="48.54534" lon="-3.39859">
        <ele>95</ele>
        <time>2023-04-13T16:27:57Z</time>
      </trkpt>
      <trkpt lat="48.5456" lon="-3.39885">
        <ele>96</ele>
        <time>2023-04-13T16:28:39Z</time>
      </trkpt>
      <trkpt lat="48.54621" lon="-3.39917">
        <ele>95</ele>
        <time>2023-04-13T16:30:05Z</time>
      </trkpt>
    </trkseg>
  </trk>
</gpx>